Zurück zum Katalog

THORAD DELTA 1 DEB

AktivLEO
NORAD 14474·DEBRIS·🇺🇸 United States

Gestartet Nov 15, 1974 von Vandenberg Space Force Base

Loading…

Nächste Überflüge (nächste 24 Stunden)

TLE

AktuellSource: Space-Track

Epoche: Sep 14, 2026, 02:52 UTC

1 14474U 74089EQ  26257.12008174 -.00000500  00000-0 -46213-2 0  9998
2 14474 100.6821 133.0647 0280023 266.3863 253.1951 12.08287702931188

Verfolge THORAD DELTA 1 DEB in Echtzeit mit AllMySat

Download on the App Store